Regional Weather Roundup
Issued by NWS Memphis, TN

Home | Current Version | Previous Version | Text Only | Print | Product List | Glossary On
Versions: 1 2 3 4 5 6 7 8 9 10 11 12 13 14 15 16 17 18 19 20 21 22 23 24 25 26 27 28 29 30 31 32 33 34 35 36 37 38 39 40 41 42 43 44 45 46 47 48 49 50
000
ASUS44 KMEG 271510
RWRMEG
MEMPHIS CWA HOURLY WEATHER ROUNDUP
NATIONAL WEATHER SERVICE MEMPHIS TN
1000 AM CDT WED AUG 27 2014

...WEST TENNESSEE...

CITY           SKY/WX    TMP DP  RH WIND       PRES   REMARKS
MEMPHIS INTL   MOSUNNY   86  66  51 CALM      30.10R
NWS MEMPHIS      N/A     84 N/A N/A MISG        N/A
JACKSON        SUNNY     82  69  64 CALM      30.11R
LEXINGTON      SUNNY     82  70  65 CALM      30.11R
SAVANNAH       SUNNY     82  72  69 CALM      30.12R
DYERSBURG      MOSUNNY   81  66  61 CALM      30.11S
UNION CITY     SUNNY     82  75  78 CALM      30.10R
PARIS          SUNNY     81  72  74 SW3       30.12R
HUNTINGDON     SUNNY     84  71  65 S3        30.11R


...EASTERN ARKANSAS...

CITY           SKY/WX    TMP DP  RH WIND       PRES   REMARKS
JONESBORO      SUNNY     83  72  69 SE3       30.10R
WEST MEMPHIS   SUNNY     84  70  62 SW3       30.09R
BATESVILLE     SUNNY     84  73  70 CALM      30.10S HX  91
NEWPORT        MOSUNNY   85  75  71 VRB3      30.11R HX  93
WALNUT RIDGE   SUNNY     82  66  57 CALM      30.09S
BLYTHEVILLE    SUNNY     83  74  74 CALM      30.11R
SEARCY         SUNNY     86  74  67 CALM      30.11R HX  94
STUTTGART      MOSUNNY   84  70  61 CALM      30.11R
PINE BLUFF     SUNNY     82  68  62 CALM      30.09R
MONTICELLO     SUNNY     83  68  60 E3        30.08R


...NORTH MISSISSIPPI...

CITY           SKY/WX    TMP DP  RH WIND       PRES   REMARKS
TUPELO         SUNNY     83  65  54 SW5       30.10R
OLIVE BRANCH   PTSUNNY   82  72  69 CALM      30.11S
CLARKSDALE     SUNNY     81  68  65 CALM      30.10S
CORINTH        SUNNY     82  70  65 NE3       30.11R
GRENADA        MOSUNNY   81  68  65 CALM      30.09R
GREENWOOD      MOSUNNY   82  69  64 S3        30.07R
COLUMBUS       SUNNY     84  64  51 VRB2      30.10R
STARKVILLE     FAIR      82  64  54 SE5       30.09S
GOLDEN TRIANGL MOSUNNY   82  64  54 E5        30.10R


...SOUTHEAST MISSOURI...

CITY           SKY/WX    TMP DP  RH WIND       PRES   REMARKS
WEST PLAINS    SUNNY     86  70  58 VRB3      30.15S HX  90
POPLAR BLUFF   SUNNY     84  70  62 CALM      30.09S
CAPE GIRARDEAU SUNNY     84  74  71 CALM      30.11R HX  91


...NORTHWEST ALABAMA...

CITY           SKY/WX    TMP DP  RH WIND       PRES   REMARKS
MUSCLE SHOALS  SUNNY     80  71  74 CALM      30.13R


...MIDDLE TENNESSEE...

CITY           SKY/WX    TMP DP  RH WIND       PRES   REMARKS
NASHVILLE      MOSUNNY   85  71  63 NW3       30.12R HX  90
CLARKSVILLE    SUNNY     84  74  71 CALM      30.11R HX  91
DICKSON        SUNNY     81  70  69 NW3       30.12R
COLUMBIA         N/A     82  73  74 CALM      30.11S
LEWISBURG      PTSUNNY   80  69  69 CALM      30.12S


...WESTERN KENTUCKY...

CITY           SKY/WX    TMP DP  RH WIND       PRES   REMARKS
PADUCAH        SUNNY     87  75  67 N5        30.10R HX  96
FORT CAMPBELL  SUNNY     83  76  78 VRB1      30.11R HX  92


...CENTRAL ARKANSAS...

CITY           SKY/WX    TMP DP  RH WIND       PRES   REMARKS
LITTLE ROCK    MOSUNNY   84  70  62 CALM      30.10R


SKY/WX REPORTED AS FAIR MEANS FEW OR NO CLOUDS BELOW
12 THOUSAND FEET.




USA.gov is the U.S. government's official web portal to all federal, state and local government web resources and services.